Andrews AFB, MD

10:34 PM EDT on October 18, 2017 (GMT -0400)
Andrews Air Force Base-Naf

Weather History for KADW - June, 2013

Change the Weather History Date:

Sunday, June 16, 2013

  Actual Average Record
Temperature  
Mean Temperature 74 °F -  
Max Temperature 85 °F 79 °F 92 °F (2015)
Min Temperature 63 °F 60 °F 53 °F (1997)
Cooling Degree Days 9    
Growing Degree Days 24 (Base 50)    
Moisture  
Dew Point 64 °F    
Average Humidity 69    
Maximum Humidity 91    
Minimum Humidity 49    
Precipitation  
Precipitation 0.00 in - - ()
Sea Level Pressure  
Sea Level Pressure 29.97 in    
Wind  
Wind Speed 5 mph (SW)    
Max Wind Speed 18 mph    
Max Gust Speed 21 mph    
Visibility 10 miles    
Events      
Averages and records for this station are not official NWS values.
T = Trace of Precipitation, MM = Missing Value Source: NWS Daily Summary

Daily Weather History Graph

Daily Weather History Graph

Search for Another Location

Airport or City:

Trip Planner

Search our weather history database for the weather conditions in past years. The results will help you decide how hot, cold, wet, or windy it might be!

Date:

Astronomy

Jun. 16, 2013 Rise Set
Actual Time 5:41 AM EDT 8:34 PM EDT
Civil Twilight 5:09 AM EDT 9:06 PM EDT
Nautical Twilight 4:29 AM EDT 9:47 PM EDT
Astronomical Twilight 3:43 AM EDT 10:33 PM EDT
Moon 1:11 PM EDT (6/16) 12:42 AM EDT (6/16)
Length of Visible Light 15h 56m
Length of Day
14h 52m
Waxing Crescent, 49% of the Moon is Illuminated
Jun 16
Waxing Crescent
Jun 16
First Quarter
Jun 23
Full
Jun 30
Last Quarter
Jul 8
New

Hourly Weather History & Observations

Time (EDT) Temp. Heat Index Dew Point Humidity Pressure Visibility Wind Dir Wind Speed Gust Speed Precip Events Conditions
12:58 AM 63.7 °F - 59.2 °F 85% 30.03 in 10.0 mi South 2.3 mph - N/A   Partly Cloudy
1:58 AM 65.3 °F - 58.8 °F 80% 30.02 in 10.0 mi Calm Calm - N/A   Scattered Clouds
2:58 AM 64.4 °F - 59.9 °F 85% 30.04 in 10.0 mi SSE 2.3 mph - N/A   Mostly Cloudy
3:58 AM 66.7 °F - 59.7 °F 78% 30.03 in 10.0 mi Calm Calm - N/A   Mostly Cloudy
4:14 AM 66.2 °F - 60.8 °F 83% 30.00 in 10.0 mi SE 2.3 mph - N/A   Light Drizzle
4:23 AM 66.2 °F - 60.8 °F 83% 30.00 in 10.0 mi Calm Calm - N/A   Scattered Clouds
4:58 AM 65.7 °F - 60.4 °F 83% 30.02 in 10.0 mi ENE 1.2 mph - 0.00 in   Partly Cloudy
5:58 AM 63.5 °F - 60.8 °F 91% 30.02 in 10.0 mi South 2.3 mph - N/A   Mostly Cloudy
6:58 AM 65.8 °F - 62.1 °F 88% 30.02 in 10.0 mi South 1.2 mph - N/A   Scattered Clouds
7:58 AM 70.5 °F - 62.6 °F 76% 30.02 in 10.0 mi SSW 6.9 mph - N/A   Partly Cloudy
8:58 AM 70.2 °F - 62.8 °F 77% 30.01 in 10.0 mi SW 6.9 mph - N/A   Scattered Clouds
9:58 AM 73.0 °F - 63.5 °F 72% 30.00 in 10.0 mi SW 6.9 mph - N/A   Mostly Cloudy
10:58 AM 78.3 °F - 63.9 °F 61% 29.99 in 10.0 mi SW 9.2 mph - N/A   Partly Cloudy
11:58 AM 81.5 °F 82.2 °F 61.3 °F 50% 29.97 in 10.0 mi SW 11.5 mph - N/A   Mostly Cloudy
12:58 PM 83.8 °F 84.7 °F 62.6 °F 49% 29.95 in 10.0 mi SW 18.4 mph 20.7 mph N/A   Mostly Cloudy
1:58 PM 83.5 °F 84.5 °F 62.8 °F 50% 29.94 in 10.0 mi WSW 10.4 mph - N/A   Scattered Clouds
2:58 PM 83.7 °F 85.5 °F 65.3 °F 54% 29.94 in 10.0 mi SW 11.5 mph - N/A   Partly Cloudy
3:47 PM 84.2 °F 85.6 °F 64.4 °F 51% 29.91 in 10.0 mi WSW 11.5 mph - N/A   Light Drizzle
3:58 PM 85.3 °F 87.4 °F 65.8 °F 52% 29.93 in 10.0 mi WSW 15.0 mph - 0.00 in   Light Drizzle
3:59 PM 84.2 °F 85.6 °F 64.4 °F 51% 29.91 in 10.0 mi WSW 11.5 mph - N/A   Partly Cloudy
4:37 PM 82.4 °F 83.9 °F 64.4 °F 54% 29.90 in 10.0 mi WSW 6.9 mph - N/A   Light Drizzle
4:49 PM 82.4 °F 84.6 °F 66.2 °F 58% 29.89 in 10.0 mi SW 6.9 mph - N/A   Partly Cloudy
4:58 PM 81.7 °F 84.2 °F 66.9 °F 61% 29.91 in 10.0 mi SSW 8.1 mph - 0.00 in   Partly Cloudy
5:58 PM 81.3 °F 84.3 °F 68.5 °F 65% 29.91 in 10.0 mi SW 9.2 mph - N/A   Mostly Cloudy
6:58 PM 81.5 °F 84.1 °F 67.5 °F 62% 29.92 in 10.0 mi West 9.2 mph - N/A   Mostly Cloudy
7:58 PM 80.6 °F 83.1 °F 67.5 °F 64% 29.93 in 10.0 mi WSW 5.8 mph - N/A   Partly Cloudy
8:58 PM 77.9 °F - 66.6 °F 68% 29.94 in 10.0 mi SW 9.2 mph - N/A   Clear
9:58 PM 76.5 °F - 67.1 °F 73% 29.95 in 10.0 mi SW 4.6 mph - N/A   Clear
10:58 PM 75.7 °F - 67.3 °F 75% 29.95 in 10.0 mi West 4.6 mph - N/A   Scattered Clouds
11:58 PM 73.2 °F - 67.8 °F 83% 29.95 in 10.0 mi SW 4.6 mph - N/A   Partly Cloudy